• Join FlightAware (Why Join?)
  • Login
  • US Flag 
04:39AM EDT


 

Airport Tracker/Info


-or-


 

Live Flight TrackerFlight Track Log ✈ DAL6197 ✈ 24-Apr-2013 ✈ KBUF - KLGA

Flight Track Log - Related Links

Times and Time Zones

All times are in EDT time to prevent confusion due to time zone crossing. See the DAL6197 flight status page for this flight to view local times or setup timezone preferences in your user account.

Time Position Orientation Groundspeed Altitude Reporting Facility
EDT Latitude Longitude Course Direction KTS MPH feet Rate Location/Type
11:13AM 42.9333 -78.7500 216° Southwest 155 178 2,600  Level Buffalo TRACON
11:14AM 42.9167 -78.7667 216° Southwest 156 180 3,700 2,100 Climbing Buffalo TRACON
11:15AM 42.8667 -78.7333 154° Southeast 279 321 5,600 2,340 Climbing Buffalo TRACON
11:16AM 42.8061 -78.6192 126° Southeast 337 388 9,000 2,100 Climbing Cleveland Center
11:17AM 42.7711 -78.5128 114° Southeast 310 357 10,400 1,620 Climbing Cleveland Center
11:18AM 42.7831 -78.3794 83° East 311 358 12,300 2,100 Climbing Cleveland Center
11:19AM 42.7947 -78.2347 84° East 343 395 14,600 2,100 Climbing Cleveland Center
11:20AM 42.8064 -78.0872 84° East 375 432 16,600 1,980 Climbing Cleveland Center
11:21AM 42.8194 -77.9281 84° East 403 464 18,600 1,620 Climbing Cleveland Center
11:22AM 42.8306 -77.7803 84° East 420 483 19,900 1,620 Climbing Cleveland Center
11:23AM 42.8347 -77.6158 88° East 426 490 21,900 1,560 Climbing Cleveland Center
11:25AM 42.8258 -77.2028 92° East 446 513 25,300 1,260 Climbing Boston Center
11:26AM 42.8206 -77.0294 92° East 452 520 26,300 1,020 Climbing Boston Center
11:27AM 42.7706 -76.8728 113° Southeast 448 516 27,400 1,140 Climbing Boston Center
11:28AM 42.7033 -76.7211 121° Southeast 448 516 28,600 780 Climbing Boston Center
11:29AM 42.6486 -76.5619 115° Southeast 459 528 29,000 180 Climbing Boston Center
11:30AM 42.6258 -76.3825 100° East 473 544 29,000  Level Boston Center
11:31AM 42.6008 -76.2006 101° East 458 527 29,000  Level Boston Center
11:32AM 42.5772 -76.0269 100° East 453 521 29,000  Level Boston Center
11:33AM 42.5514 -75.8478 101° East 459 528 29,000  Level Boston Center
11:34AM 42.5294 -75.6775 100° East 459 528 29,000  Level Boston Center
11:35AM 42.5028 -75.5100 102° East 459 528 29,000  Level Boston Center
11:36AM 42.4800 -75.3428 100° East 454 522 29,000  Level Boston Center
11:37AM 42.4444 -75.1806 106° East 449 517 29,000 -600 Level Boston Center
11:38AM 42.3894 -75.0347 117° Southeast 443 510 27,800 -1,620 Descending Boston Center
11:39AM 42.3325 -74.8808 117° Southeast 443 510 25,800 -2,040 Descending Boston Center
11:40AM 42.2792 -74.7383 117° Southeast 448 516 23,800 -1,920 Descending Boston Center
11:41AM 42.2278 -74.5964 116° Southeast 431 496 22,000 -1,800 Descending Boston Center
11:42AM 42.1758 -74.4656 118° Southeast 414 476 20,200 -1,740 Descending Boston Center
11:43AM 42.1344 -74.3411 114° Southeast 400 460 18,600 -1,140 Descending Boston Center
11:44AM 42.0742 -74.2050 121° Southeast 392 451 18,000 -300 Descending Boston Center
11:45AM 42.0089 -74.1025 131° Southeast 369 425 18,000 -60 Level Boston Center
11:46AM 41.9219 -74.0639 162° South 354 407 17,900 -840 Descending Boston Center
11:47AM 41.8206 -74.0167 161° South 354 407 16,400 -1,560 Descending Boston Center
11:48AM 41.7397 -73.9786 161° South 349 402 14,800 -1,800 Descending Boston Center
11:49AM 41.6361 -73.9317 161° South 349 402 12,800 -1,680 Descending Boston Center
11:51AM 41.5167 -73.8833 163° South 317 365 11,000 -1,440 Descending New York TRACON
11:52AM 41.4333 -73.8500 163° South 288 331 9,500 -1,500 Descending New York TRACON
11:53AM 41.3667 -73.8167 159° South 280 322 8,100 -780 Descending New York TRACON
11:54AM 41.3000 -73.7500 143° Southeast 285 328 8,000 -60 Descending New York TRACON
11:55AM 41.2333 -73.7000 151° Southeast 284 327 8,000 -720 Level New York TRACON
11:56AM 41.1667 -73.6500 151° Southeast 278 320 6,700 -1,500 Descending New York TRACON
11:57AM 41.1000 -73.6000 151° Southeast 285 328 5,200 -1,260 Descending New York TRACON
11:58AM 41.0333 -73.6667 217° Southwest 254 292 4,100 -600 Descending New York TRACON
11:59AM 40.9833 -73.7000 207° Southwest 214 246 4,000 -420 Descending New York TRACON
12:00PM 40.9500 -73.7333 217° Southwest 179 206 3,300 -840 Descending New York TRACON
12:01PM 40.9000 -73.7833 217° Southwest 178 205 2,300 -780 Descending New York TRACON
12:02PM 40.8667 -73.8000 201° Southwest 173 199 1,900 -600 Descending New York TRACON
12:03PM 40.8333 -73.8333 217° Southwest 126 145 1,100 -720 Descending New York TRACON
12:04PM 40.8000 -73.8500 201° Southwest 124 143 500 -720 Descending New York TRACON
12:06PM 40.7667 -73.8667 180° South  Level FlightAware Approximate